Stations météo

réclame
Mon MeteoGroup
Cognac, France (7412): Température de l'air & dewpoint: 11.12.2018 06:00:00 - 17.12.2018 06:00:00 (CET)Cognac, France (7412): Température de l'air 5cm: 11.12.2018 06:00:00 - 17.12.2018 06:00:00 (CET)Cognac, France (7412): Température de l'air -20cm & Température de l'air -100cm: 11.12.2018 06:00:00 - 17.12.2018 06:00:00 (CET)Cognac, France (7412): Vitesse du vent & gusts: 11.12.2018 06:00:00 - 17.12.2018 06:00:00 (CET)Cognac, France (7412): Direction du vent: 11.12.2018 06:00:00 - 17.12.2018 06:00:00 (CET)Cognac, France (7412): reduced air pressure: 11.12.2018 06:00:00 - 17.12.2018 06:00:00 (CET)Cognac, France (7412): visibility: 11.12.2018 06:00:00 - 17.12.2018 06:00:00 (CET)Cognac, France (7412): Ensoleillement: 11.12.2018 06:00:00 - 17.12.2018 06:00:00 (CET)Cognac, France (7412): Quantités de précipitations: 11.12.2018 06:00:00 - 17.12.2018 06:00:00 (CET)
Date & Time tt [°C] td [°C] tt 5cm [°C] tt -20cm [°C] tt -100cm [°C] ff [km/h] ff [knt] fx [km/h] fx [knt] dd ppp [hPa] vv [km] sd [min] rr [mm]
17.12.2018 06:00:00 6,9 5,7 5,0 8,7 11,8 8 5 13 7 SW 1023,5 20 0 0,0
17.12.2018 05:00:00 7,0 5,5 4,3 8,7 11,8 9 5 14 8 SW 1022,9 41 0 0,0
17.12.2018 04:00:00 6,5 5,1 2,8 8,7 11,8 10 5 15 8 SSW 1022,4 50 0 0,0
17.12.2018 03:00:00 6,9 5,4 3,4 8,7 11,8 5 3 18 10 SW 1021,6 20 0 0,0
17.12.2018 02:00:00 7,0 5,8 2,8 8,7 11,8 9 5 14 8 SW 1020,9 19 0 0,0
17.12.2018 01:00:00 6,8 5,1 3,9 8,6 11,8 6 4 16 8 SSW 1020,3 36 0 0,0
17.12.2018 00:00:00 7,2 5,8 5,2 8,6 11,8 8 4 13 7 W 1020,0 42 0 0,0
16.12.2018 23:00:00 7,5 6,1 5,8 8,6 11,8 10 5 22 12 WSW 1018,6 47 0 0,0
16.12.2018 22:00:00 8,1 7,0 6,7 8,5 11,9 13 7 20 11 WSW 1017,6 36 0 0,0
16.12.2018 21:00:00 7,8 6,7 6,6 8,5 11,9 11 6 22 12 WSW 1016,5 36 0 0,0
16.12.2018 20:00:00 8,8 7,6 7,8 8,5 11,9 16 9 47 26 W 1015,2 48 0 1,8
16.12.2018 19:00:00 8,5 7,7 7,8 8,4 11,8 11 6 26 14 SSW 1014,0 19 0 0,8
16.12.2018 18:00:00 9,3 8,4 8,6 8,4 11,9 17 9 34 18 WSW 1013,5 4,4 0 2,2
16.12.2018 17:00:00 9,4 8,0 8,6 8,4 11,9 16 9 24 13 S 1012,7 59 0 0,0
16.12.2018 16:00:00 10,4 9,3 9,8 8,3 11,9 16 9 31 17 S 1012,3 43 0 0,0
16.12.2018 15:00:00 10,7 10,1 10,4 8,3 11,9 18 10 31 17 SSW 1012,5 17 0 0,2
16.12.2018 14:00:00 10,2 10,0 10,8 8,3 11,9 8 5 14 8 S 1012,7 11 2 0,0
16.12.2018 13:00:00 9,3 9,2 9,1 8,3 11,9 9 5 13 7 SE 1013,0 0,2 0 0,0
16.12.2018 12:00:00 8,6 8,5 7,9 8,3 11,9 11 6 17 9 ESE 1014,1 0,7 5 0,0
16.12.2018 11:00:00 7,0 6,9 5,1 8,3 12,0 7 4 12 6 SE 1014,5 6 0 0,0
16.12.2018 10:00:00 6,3 6,2 3,7 8,3 12,0 5 3 10 5 ESE 1014,7 0,9 0 0,0
16.12.2018 09:00:00 5,5 5,2 2,6 8,3 12,0 6 3 8 5 E 1014,5 0,5 0 0,0
16.12.2018 08:00:00 5,9 5,6 2,5 8,2 12,0 7 4 8 5 ESE 1014,5 0,4 0 0,0
16.12.2018 07:00:00 6,4 6,1 3,2 8,2 12,0 2 1 3 2 SSE 1014,9 1,3 0 0,0
16.12.2018 06:00:00 6,7 6,4 4,2 8,2 12,1 0 0 8 5 N 1015,0 3,9 0 0,0
16.12.2018 05:00:00 6,8 6,4 3,4 8,1 12,0 2 1 5 3 SE 1015,3 3,9 0 0,0
16.12.2018 04:00:00 8,5 8,1 5,1 8,1 12,0 5 3 8 4 SW 1015,9 7 0 0,2
16.12.2018 03:00:00 9,3 8,8 6,2 8,1 12,1 6 3 12 6 SW 1015,6 0,6 0 0,0
16.12.2018 02:00:00 10,5 10,0 7,8 8,0 12,1 6 3 14 8 WSW 1015,3 0,7 0 0,0
16.12.2018 01:00:00 11,2 10,9 9,5 8,0 12,1 10 5 27 14 WSW 1015,3 8 0 0,0
16.12.2018 00:00:00 9,9 9,4 9,2 8,0 12,1 16 9 29 16 SSW 1015,1 8 0 0,0
15.12.2018 23:00:00 9,7 9,4 8,0 8,0 12,1 22 12 40 21 SSW 1014,7 11 0 0,0
15.12.2018 22:00:00 8,3 7,9 7,6 8,0 12,1 24 13 35 19 S 1014,3 6 0 1,0
15.12.2018 21:00:00 7,8 7,4 7,1 8,0 12,2 20 11 29 15 S 1014,8 3,2 0 1,0
15.12.2018 20:00:00 7,3 6,9 6,6 8,0 12,2 14 7 22 12 SSE 1015,0 5 0 1,4
15.12.2018 19:00:00 6,9 6,3 6,5 8,0 12,2 12 7 22 12 SE 1015,0 12 0 0,4
15.12.2018 18:00:00 6,7 6,1 6,2 8,0 12,2 12 7 26 14 S 1015,7 19 0 0,2
15.12.2018 17:00:00 6,4 5,8 6,1 8,0 12,2 19 10 29 16 SSE 1015,6 15 0 0,0
15.12.2018 16:00:00 6,1 5,7 5,5 8,1 12,2 16 9 25 14 SE 1016,1 10 0 1,0
15.12.2018 15:00:00 5,4 5,0 5,1 8,0 12,2 13 7 22 12 SE 1016,9 4,0 0 1,1
15.12.2018 14:00:00 5,0 4,6 4,5 8,1 12,2 14 7 24 13 SE 1017,4 5 0 2,0
15.12.2018 13:00:00 4,4 4,0 3,9 8,1 12,2 15 8 24 13 SE 1018,5 2,4 0 1,6
15.12.2018 12:00:00 3,8 3,2 3,3 8,2 12,3 15 8 28 15 SE 1019,7 2,1 0 0,6
15.12.2018 11:00:00 3,2 2,3 2,5 8,2 12,3 16 9 28 15 SE 1020,0 6 0 0,6
15.12.2018 10:00:00 2,5 1,5 2,0 8,2 12,3 19 11 29 16 SE 1020,1 7 0 0,2
15.12.2018 09:00:00 2,5 0,7 1,6 8,3 12,3 10 6 22 12 SE 1020,6 9 0 0,0
15.12.2018 08:00:00 2,1 0,2 1,7 8,4 12,3 13 7 22 12 ESE 1020,2 8 0 0,0
15.12.2018 07:00:00 1,7 -0,2 1,5 8,4 12,3 15 8 21 12 ESE 1020,8 8 0 0,0
15.12.2018 06:00:00 1,4 -0,1 1,0 8,4 12,3 15 8 19 11 ESE 1021,5 6 0 0,0
15.12.2018 05:00:00 0,8 -0,4 0,8 8,4 12,3 10 6 16 9 ESE 1021,8 5 0 0,0
15.12.2018 04:00:00 0,5 -0,6 0,2 8,5 12,3 8 4 16 9 E 1022,5 5 0 0,0
15.12.2018 03:00:00 -0,1 -1,0 -1,1 8,5 12,3 10 5 14 8 E 1023,0 4,1 0 0,0
15.12.2018 02:00:00 -0,6 -1,6 -1,4 8,5 12,3 6 3 12 6 ENE 1023,8 3,7 0 0,0
15.12.2018 01:00:00 -0,5 -1,6 -1,0 8,6 12,4 9 5 18 10 E 1023,5 4,4 0 0,0
15.12.2018 00:00:00 0,0 -1,3 0,0 8,6 12,4 13 7 17 9 E 1024,0 5 0 0,0
14.12.2018 23:00:00 -0,2 -1,6 -0,1 8,7 12,4 4 2 19 10 ENE 1024,4 5 0 0,0
14.12.2018 22:00:00 -0,3 -1,6 -0,1 8,7 12,4 13 7 22 12 E 1024,3 5 0 0,0
14.12.2018 21:00:00 0,1 -1,3 0,1 8,7 12,4 8 4 16 9 E 1024,4 5 0 0,0
14.12.2018 20:00:00 0,0 -1,3 -0,5 8,7 12,4 8 5 10 6 ENE 1024,3 5 0 0,0
14.12.2018 19:00:00 -0,2 -1,5 -0,9 8,7 12,4 6 3 15 8 E 1023,9 6 0 0,0
14.12.2018 18:00:00 -0,1 -1,4 -0,7 8,8 12,4 8 4 18 10 E 1023,2 6 0 0,0
14.12.2018 17:00:00 0,0 -1,4 -0,3 8,8 12,4 13 7 18 10 ENE 1022,4 5 0 0,0
14.12.2018 16:00:00 0,7 -1,1 1,4 8,8 12,4 9 5 14 8 N 1023,2 6 7 0,0
14.12.2018 15:00:00 0,7 -1,1 1,8 8,9 12,4 5 3 17 9 NNW 1022,4 7 0 0,0
14.12.2018 14:00:00 0,2 -1,2 1,6 8,9 12,5 12 7 19 11 NNE 1021,1 6 2 0,0
14.12.2018 13:00:00 0,1 -1,5 1,7 9,0 12,5 13 7 22 12 NE 1021,0 6 8 0,0
14.12.2018 12:00:00 0,7 -1,4 2,2 9,0 12,5 11 6 17 9 N 1021,6 9 36 0,0
14.12.2018 11:00:00 0,1 -1,7 1,1 9,1 12,5 6 4 12 7 NNE 1020,3 8 32 0,0
14.12.2018 10:00:00 -0,2 -1,6 -1,0 9,1 12,5 9 5 13 7 NE 1019,1 7 56 0,0
14.12.2018 09:00:00 -0,8 -1,8 -1,2 9,2 12,5 6 4 12 7 N 1018,6 6 0 0,0
14.12.2018 08:00:00 -0,2 -1,3 -0,3 9,2 12,5 9 5 19 10 NNE 1017,5 4,8 0 0,0
14.12.2018 07:00:00 0,1 -0,9 0,1 9,3 12,5 10 5 22 12 NNE 1016,5 4,2 0 0,0
14.12.2018 06:00:00 0,0 -0,7 0,0 9,3 12,5 12 7 19 10 NNE 1015,8 3,7 0 0,0
14.12.2018 05:00:00 0,0 -0,4 0,0 9,4 12,5 14 7 21 11 NE 1015,1 3,0 0 0,0
14.12.2018 04:00:00 0,5 -0,1 -0,1 9,4 12,5 11 6 16 9 NNE 1015,1 2,5 0 0,0
14.12.2018 03:00:00 0,4 -0,3 -0,3 9,4 12,5 6 3 10 5 N 1014,8 4,0 0 0,0
14.12.2018 02:00:00 0,8 0,1 0,2 9,4 12,5 4 2 14 7 N 1014,3 3,7 0 0,0
14.12.2018 01:00:00 1,1 0,2 1,0 9,5 12,6 8 4 16 9 NE 1013,8 3,8 0 0,0
14.12.2018 00:00:00 1,4 0,4 0,9 9,5 12,6 9 5 14 8 N 1013,7 4,6 0 0,0
13.12.2018 23:00:00 1,5 0,5 1,1 9,5 12,6 9 5 14 8 N 1013,0 5 0 0,0
13.12.2018 22:00:00 2,0 0,8 1,5 9,5 12,6 8 4 18 10 NNE 1012,4 6 0 0,0
13.12.2018 21:00:00 2,5 1,0 2,0 9,5 12,6 12 7 18 10 N 1011,9 7 0 0,0
13.12.2018 20:00:00 3,5 2,0 2,9 9,5 12,6 11 6 22 12 NNE 1010,8 8 0 0,0
13.12.2018 19:00:00 4,3 2,6 3,6 9,4 12,6 11 6 21 12 NE 1010,1 9 0 0,0
13.12.2018 18:00:00 5,1 3,6 4,6 9,5 12,6 10 5 18 10 NNE 1009,3 8 0 0,0
13.12.2018 17:00:00 5,8 4,6 5,3 9,4 12,6 14 7 23 12 NNE 1008,5 7 0 0,2
13.12.2018 16:00:00 6,8 5,7 6,5 9,5 12,6 12 6 17 9 NNE 1007,7 9 0 0,4
13.12.2018 15:00:00 6,7 5,8 6,7 9,5 12,6 12 7 17 9 NNE 1007,0 8 0 0,2
13.12.2018 14:00:00 7,2 6,1 7,1 9,5 12,7 11 6 16 9 ENE 1007,0 13 0 0,4
13.12.2018 13:00:00 6,9 6,0 6,7 9,5 12,7 9 5 17 9 ENE 1007,1 10 0 0,4
13.12.2018 12:00:00 6,6 5,7 6,4 9,5 12,7 12 6 17 9 NE 1007,6 9 0 0,2
13.12.2018 11:00:00 6,4 5,7 6,0 9,5 12,7 13 7 19 10 ENE 1007,7 11 0 0,4
13.12.2018 10:00:00 6,1 5,4 5,8 9,5 12,7 8 4 16 8 ENE 1007,5 11 0 0,2
13.12.2018 09:00:00 6,0 5,4 4,2 9,5 12,7 11 6 15 8 ENE 1007,3 12 0 0,0
13.12.2018 08:00:00 5,8 4,9 4,4 9,5 12,7 5 3 15 8 E 1007,6 14 0 0,0
13.12.2018 07:00:00 6,6 5,7 6,1 9,5 12,7 13 7 20 11 ESE 1008,0 17 0 0,0
13.12.2018 06:00:00 6,6 5,7 6,2 9,5 12,7 11 6 20 11 ESE 1008,9 14 0 0,0
13.12.2018 05:00:00 6,5 5,8 6,1 9,6 12,8 10 6 22 12 ESE 1009,6 11 0 0,0
13.12.2018 04:00:00 6,4 5,8 5,8 9,6 12,8 15 8 22 12 ESE 1010,0 10 0 0,0
13.12.2018 03:00:00 6,0 5,6 5,6 9,6 12,8 9 5 19 10 E 1011,2 9 0 0,0
13.12.2018 02:00:00 5,7 5,4 5,2 9,6 12,8 9 5 15 8 E 1011,6 7 0 0,0
13.12.2018 01:00:00 5,2 4,9 4,8 9,7 12,8 8 4 18 10 ESE 1012,7 3,9 0 0,0
13.12.2018 00:00:00 4,8 4,5 4,6 9,7 12,8 13 7 21 11 E 1013,0 4,2 0 0,0
12.12.2018 23:00:00 4,7 4,4 1,3 9,7 12,8 11 6 15 8 ESE 1014,1 4,6 0 0,0
12.12.2018 22:00:00 2,9 2,5 -0,3 9,7 12,8 8 4 10 6 ESE 1015,0 0,3 0 0,0
12.12.2018 21:00:00 3,7 3,3 0,2 9,7 12,8 8 5 10 5 E 1015,9 0,8 0 0,0
12.12.2018 20:00:00 4,5 3,9 1,3 9,6 12,9 6 4 9 5 E 1016,4 2,5 0 0,0
12.12.2018 19:00:00 5,2 4,2 3,1 9,6 12,8 7 4 10 5 ESE 1016,8 12 0 0,0
12.12.2018 18:00:00 6,3 5,3 5,6 9,6 12,9 4 2 12 7 ESE 1017,4 14 0 0,0
12.12.2018 17:00:00 6,7 5,5 6,3 9,6 12,8 6 4 11 6 E 1017,6 11 0 0,0
12.12.2018 16:00:00 6,9 5,7 7,2 9,6 12,9 5 3 10 6 ESE 1017,6 11 0 0,0
12.12.2018 15:00:00 7,0 5,9 7,6 9,7 12,9 6 4 11 6 E 1017,8 10 0 0,0
12.12.2018 14:00:00 7,0 5,9 7,6 9,7 12,9 3 2 10 6 NE 1018,5 11 0 0,0
12.12.2018 13:00:00 6,5 5,9 7,1 9,7 12,9 8 4 13 7 NE 1019,2 9 0 0,0
12.12.2018 12:00:00 5,7 5,3 5,8 9,8 12,9 7 4 16 9 NE 1019,7 7 2 0,0
12.12.2018 11:00:00 5,1 4,8 4,4 9,8 12,9 8 4 21 11 ESE 1020,0 3,9 6 0,0
12.12.2018 10:00:00 4,2 3,8 4,0 9,8 12,9 7 4 13 7 ENE 1020,0 1,2 0 0,4
12.12.2018 09:00:00 3,9 3,5 3,6 9,9 13,0 6 3 10 5 E 1020,0 1,2 0 0,6
12.12.2018 08:00:00 3,6 3,2 3,1 10,0 12,9 6 3 13 7 E 1019,7 7 0 0,2
12.12.2018 07:00:00 3,0 2,7 1,2 10,0 13,0 6 3 13 7 ENE 1019,8 4,7 0 0,0
12.12.2018 06:00:00 1,9 1,6 -0,4 10,1 13,0 7 4 9 5 ENE 1020,1 1,5 0 0,0
12.12.2018 05:00:00 1,9 1,6 -0,5 10,1 13,0 5 3 10 6 E 1020,2 2,8 0 0,0
12.12.2018 04:00:00 1,2 0,8 -1,2 10,2 13,0 0 0 7 4 N 1021,1 0,8 0 0,0
12.12.2018 03:00:00 1,1 0,7 0,2 10,2 13,0 6 3 6 4 ESE 1021,1 1,3 0 0,0
12.12.2018 02:00:00 2,3 1,7 0,4 10,3 13,0 0 0 4 2 N 1021,5 3,1 0 0,0
12.12.2018 01:00:00 3,1 2,5 1,4 10,3 13,0 3 1 13 7 NW 1021,9 3,4 0 0,0
12.12.2018 00:00:00 2,6 1,9 0,9 10,3 13,0 3 1 6 4 ENE 1021,6 0,6 0 0,0
11.12.2018 23:00:00 3,5 2,8 1,3 10,3 13,0 3 1 9 5 NE 1022,1 4,2 0 0,0
11.12.2018 22:00:00 3,9 3,3 0,9 10,3 13,1 5 3 6 4 NNE 1022,0 6 0 0,0
11.12.2018 21:00:00 3,4 2,4 0,9 10,3 13,0 0 0 13 7 N 1022,2 7 0 0,0
11.12.2018 20:00:00 4,6 3,6 3,0 10,3 13,0 6 4 10 5 NNE 1022,1 11 0 0,0
11.12.2018 19:00:00 4,5 3,3 3,4 10,2 13,0 10 5 18 10 NE 1022,2 10 0 0,0
11.12.2018 18:00:00 6,5 4,5 5,7 10,3 13,1 14 8 18 10 NNE 1022,4 20 0 0,0
11.12.2018 17:00:00 8,5 4,9 7,4 10,3 13,1 11 6 15 8 NE 1022,4 37 17 0,0
11.12.2018 16:00:00 10,1 4,0 10,5 10,3 13,0 10 6 16 9 NE 1022,7 46 60 0,0
11.12.2018 15:00:00 10,4 3,7 12,4 10,3 13,1 6 3 16 9 ENE 1022,9 34 60 0,0
11.12.2018 14:00:00 10,0 5,0 13,3 10,4 13,1 10 5 16 8 E 1023,4 31 60 0,0
11.12.2018 13:00:00 8,9 5,3 12,6 10,5 13,1 10 5 16 9 ENE 1024,5 13 60 0,0
11.12.2018 12:00:00 6,9 5,0 9,9 10,5 13,1 8 4 11 6 ENE 1025,5 10 60 0,0
11.12.2018 11:00:00 5,4 4,8 5,0 10,6 13,1 0 0 10 6 N 1026,2 6 60 0,0
11.12.2018 10:00:00 2,7 2,4 0,0 10,7 13,1 5 3 8 4 ENE 1026,0 3,1 54 0,0
11.12.2018 09:00:00 1,1 0,8 -1,5 10,7 13,1 0 0 5 3 N 1026,0 0,3 0 0,0
11.12.2018 08:00:00 1,2 0,9 -0,8 10,8 13,1 0 0 9 5 N 1026,2 2,0 0 0,0
11.12.2018 07:00:00 1,4 1,1 -0,1 10,9 13,1 7 4 14 8 ENE 1026,0 3,3 0 0,0
11.12.2018 06:00:00 1,6 1,3 -1,4 10,9 13,1 13 7 16 9 ENE 1026,5 2,4 0 0,0

tt = Température de l'air
td = dewpoint
tt 5cm = Température de l'air 5cm
tt -20cm = Température de l'air -20cm
tt -100cm = Température de l'air -100cm
ff = Vitesse du vent
fx = gusts
dd = Direction du vent
ppp = reduced air pressure
vv = visibility
sd = Ensoleillement
rr = Quantités de précipitations

stations d'obs. à proximité